[[{"header":{"parameterUnit":"m.s-1","parameterCategory":1,"la1":30.2991,"la2":30.254,"lo1":-89.0895,"lo2":-89.0444,"dy":0.0017,"dx":0.0017,"nx":28,"ny":28,"refTime":"2025-11-12T03:00:00:Z","depth":0,"parameterNumber":2,"parameterNumberName":"U-component_of_WINDS"},"data":[0,0,0,0,0,0,0,0,0,0,0,0,0,0,0,0,0,0,0,0,0,0,0,0,0,0,0,0,0,0,0,0,0,0,0,0,0,0,0,0,0,0,0,0,0,0,0,0,0,0,0,0,0,0,0,0,0,0,0.6488,0.649,0,0.6611,0.6612,0.6614,0.6637,0.6636,0.6636,0.6635,0.6762,0.6766,0.677,0,0,0,0,0,0,0,0,0,0,0,0,0,0.6274,0.6278,0.6488,0.649,0.6491,0.6611,0.6613,0.6614,0.6638,0.6636,0.6635,0.6634,0.676,0.6765,0.677,0,0,0,0,0,0,0,0,0,0,0,0,0,0.6379,0.6279,0.6488,0.6517,0.6521,0.6611,0.6613,0.6615,0.6638,0.6636,0.6635,0.6634,0.6759,0.6765,0.6771,0.684,0,0,0.6791,0.6794,0,0,0,0,0,0,0,0,0.6373,0.6387,0.6511,0.6515,0.652,0.6607,0.6584,0.669,0.6638,0.6594,0.6635,0.6633,0.6712,0.6722,0.6748,0.6846,0.6852,0.6791,0.6795,0.6798,0.68,0,0,0,0,0,0,0,0.6365,0.6381,0.6537,0.6513,0.6518,0.6524,0.6538,0.6604,0.6659,0.6597,0.6599,0.6614,0.6714,0.6742,0.6751,0.6854,0.6791,0.6797,0.6801,0.6803,0.7013,0.7015,0,0,0,0,0,0,0.6353,0.6375,0.6533,0.654,0.6441,0.6529,0.6544,0.6581,0.6659,0.6669,0.6615,0.6614,0.6732,0.6744,0.6756,0.6841,0.6798,0.6804,0.6808,0.7012,0.7014,0.7016,0,0,0,0,0,0,0.6348,0.6367,0.6528,0.6458,0.6479,0.6535,0.6575,0.6584,0.6612,0.6672,0.6682,0.6633,0.6731,0.6747,0.6819,0.6846,0.6807,0.6813,0.701,0.7012,0.7015,0.7012,0,0,0,0,0,0,0.6342,0.6365,0.6392,0.6459,0.6483,0.6589,0.6577,0.6587,0.6623,0.6624,0.6692,0.6702,0.6731,0.6809,0.6825,0.6854,0.6818,0.7007,0.7011,0.7014,0.701,0.7015,0.7018,0,0,0,0,0,0.6334,0.6387,0.6393,0.6412,0.6518,0.659,0.6604,0.6636,0.6625,0.6653,0.6691,0.67,0.684,0.6816,0.6835,0.6866,0.7006,0.701,0.7014,0.7009,0.7014,0.7018,0,0,0,0,0,0,0.6322,0.6396,0.6404,0.648,0.6528,0.6594,0.663,0.6641,0.6694,0.6692,0.673,0.6746,0.6815,0.6848,0.682,0.6936,0.6922,0.693,0.6912,0.6918,0.6922,0.6912,0.6823,0,0,0,0,0,0.6328,0.6381,0.6443,0.6503,0.6527,0.6574,0.6607,0.6627,0.668,0.67,0.6744,0.6794,0.685,0.6886,0.694,0.7015,0.703,0.7046,0.705,0.7052,0.7059,0.71,0.7107,0.7028,0.7028,0.7028,0,0,0.6341,0.6388,0.6419,0.6502,0.6542,0.6596,0.6591,0.6649,0.6688,0.6709,0.678,0.6813,0.6872,0.6945,0.698,0.6975,0.7084,0.7057,0.7059,0.7064,0.7105,0.7112,0.7119,0.7031,0.703,0.703,0,0,0.6392,0.6433,0.6488,0.6528,0.6589,0.6619,0.6632,0.6696,0.6719,0.679,0.6807,0.6855,0.695,0.6991,0.7024,0.7089,0.7099,0.7106,0.7127,0.7166,0.7172,0.7178,0.7201,0.7209,0.7112,0.7112,0.7112,0,0.6401,0.6482,0.6515,0.6571,0.6607,0.6627,0.6683,0.672,0.6795,0.682,0.6813,0.6931,0.6973,0.7055,0.7071,0.7098,0.7113,0.7098,0.7169,0.7175,0.7181,0.7203,0.7211,0.7112,0.7112,0.7112,0.7112,0,0.649,0.6546,0.6582,0.6654,0.6694,0.6749,0.679,0.6827,0.6843,0.6874,0.6946,0.6996,0.706,0.7082,0.7099,0.7167,0.7161,0.7161,0.7148,0.7188,0.7209,0.7218,0.7113,0.7113,0.7113,0.7112,0,0,0.6537,0.6625,0.6638,0.667,0.6738,0.6782,0.6838,0.69,0.693,0.6982,0.7029,0.7109,0.7108,0.7146,0.7168,0.7203,0.725,0.7198,0.72,0.7206,0.7327,0.7327,0.7336,0.7257,0.7259,0.7261,0.7322,0,0.6596,0.6696,0.6727,0.6811,0.6863,0.6882,0.6931,0.6978,0.7008,0.7057,0.709,0.7146,0.7142,0.7164,0.72,0.7237,0.7275,0.7233,0.7302,0.7304,0.7286,0.7347,0.7347,0.7403,0.7331,0.7332,0.7333,0,0.6678,0.673,0.6819,0.6879,0.6902,0.6945,0.7004,0.705,0.7103,0.7123,0.7164,0.7183,0.7242,0.7225,0.7307,0.7277,0.7307,0.733,0.7333,0.734,0.7321,0.7356,0.7422,0.743,0.7347,0.7346,0.7345,0,0.6703,0.6795,0.6859,0.6887,0.6959,0.6988,0.702,0.7072,0.7107,0.7158,0.7182,0.724,0.7271,0.7316,0.735,0.7335,0.7428,0.7415,0.7446,0.7445,0.7465,0.7463,0.7536,0.7484,0.7484,0.7484,0.7484,0,0.6765,0.6819,0.6871,0.6911,0.6971,0.7006,0.7065,0.7097,0.7143,0.7189,0.721,0.7253,0.7296,0.7344,0.7371,0.7434,0.7449,0.7466,0.7472,0.7464,0.7462,0.7484,0.7481,0.7486,0.7486,0.7485,0.7485,0,0.6803,0.6841,0.6912,0.6974,0.6991,0.7033,0.7086,0.7125,0.7156,0.7214,0.723,0.7279,0.7337,0.7375,0.745,0.7468,0.7536,0.7542,0.7518,0.7521,0.755,0.7546,0.7639,0.7653,0.7593,0.7593,0.7594,0,0.684,0.6881,0.6947,0.698,0.7011,0.7063,0.7099,0.7134,0.717,0.7233,0.7265,0.7324,0.7374,0.7466,0.7508,0.7565,0.7572,0.76,0.7581,0.757,0.7572,0.7569,0.7573,0.7604,0.7604,0.7604,0.7605,0,0.6901,0.6918,0.6968,0.7025,0.7067,0.7113,0.716,0.7185,0.7229,0.7268,0.7328,0.7366,0.7441,0.75,0.7561,0.7593,0.7606,0.7611,0.7621,0.7612,0.7596,0.7605,0.7526,0.7608,0.7608,0.7608,0.7608,0.7607,0.694,0.6977,0.7029,0.7084,0.7123,0.7166,0.7205,0.7241,0.7291,0.7355,0.7372,0.7434,0.7486,0.7568,0.7602,0.7651,0.7647,0.7662,0.7666,0.7669,0.7669,0.7589,0.7662,0.7662,0.7662,0.7662,0.7662,0,0.7002,0.7036,0.7086,0.715,0.7194,0.7202,0.7253,0.7289,0.7343,0.739,0.7437,0.7505,0.7562,0.7608,0.7666,0.7697,0.7704,0.7711,0.7709,0.7716,0.7669,0.7654,0.7704,0.7704,0.7704,0.7704,0.7704,0.7704,0.7039,0.7102,0.7125,0.7207,0.7241,0.7301,0.733,0.7369,0.7407,0.7481,0.7528,0.7558,0.7604,0.7666,0.7718,0.773,0.775,0.7756,0.7769,0.7724,0.7719,0.7715,0.7701,0.776,0.776,0.7812,0.7813,0.7813]},{"header":{"parameterUnit":"m.s-1","parameterCategory":1,"la1":30.2991,"la2":30.254,"lo1":-89.0895,"lo2":-89.0444,"dy":0.0017,"dx":0.0017,"nx":28,"ny":28,"refTime":"2025-11-12T03:00:00:Z","depth":0,"parameterNumber":3,"parameterNumberName":"V-component_of_WINDS"},"data":[0,0,0,0,0,0,0,0,0,0,0,0,0,0,0,0,0,0,0,0,0,0,0,0,0,0,0,0,0,0,0,0,0,0,0,0,0,0,0,0,0,0,0,0,0,0,0,0,0,0,0,0,0,0,0,0,0,0,1.735,1.7349,0,1.7258,1.7257,1.7256,1.7155,1.7154,1.7152,1.7151,1.7055,1.7054,1.7053,0,0,0,0,0,0,0,0,0,0,0,0,0,1.7436,1.7435,1.735,1.7349,1.7348,1.7258,1.7257,1.7256,1.7156,1.7154,1.7152,1.715,1.7056,1.7054,1.7053,0,0,0,0,0,0,0,0,0,0,0,0,0,1.7377,1.7435,1.7351,1.7287,1.7281,1.7259,1.7257,1.7255,1.7156,1.7154,1.7152,1.715,1.7056,1.7054,1.7053,1.7085,0,0,1.7047,1.7046,0,0,0,0,0,0,0,0,1.7381,1.7374,1.7298,1.7292,1.7284,1.7216,1.7252,1.7198,1.7156,1.7203,1.7151,1.7148,1.711,1.7104,1.7092,1.7081,1.7077,1.7047,1.7046,1.7045,1.7045,0,0,0,0,0,0,0,1.7385,1.7377,1.7314,1.7297,1.7288,1.7262,1.7252,1.7241,1.717,1.7199,1.7191,1.7182,1.7106,1.7094,1.7089,1.7075,1.7047,1.7046,1.7044,1.7044,1.7083,1.7085,0,0,0,0,0,0,1.7399,1.7381,1.7317,1.7311,1.7328,1.7263,1.725,1.724,1.717,1.7157,1.7184,1.7178,1.7098,1.7091,1.7085,1.7117,1.7045,1.7044,1.7042,1.7081,1.7084,1.7086,0,0,0,0,0,0,1.7401,1.7394,1.732,1.7344,1.7333,1.7263,1.7253,1.7239,1.7226,1.7159,1.7145,1.7184,1.7096,1.7087,1.7085,1.7112,1.7043,1.7041,1.7079,1.7082,1.7085,1.7182,0,0,0,0,0,0,1.7404,1.7395,1.7408,1.7345,1.7332,1.7324,1.7254,1.7239,1.7224,1.7215,1.7155,1.7143,1.7093,1.7089,1.7084,1.7108,1.704,1.7076,1.708,1.7084,1.7176,1.7188,1.7199,0,0,0,0,0,1.7407,1.7439,1.7409,1.7402,1.7346,1.7326,1.7318,1.726,1.7227,1.7238,1.7194,1.7145,1.711,1.7089,1.7083,1.7107,1.7074,1.7079,1.7084,1.7171,1.7186,1.7198,0,0,0,0,0,0,1.7507,1.743,1.7396,1.7409,1.7375,1.7309,1.7322,1.7278,1.7252,1.7245,1.7174,1.7161,1.7167,1.7137,1.7115,1.7134,1.7085,1.7089,1.7154,1.7167,1.7178,1.7185,1.7038,0,0,0,0,0,1.7531,1.7521,1.7454,1.7471,1.7456,1.7392,1.7381,1.7339,1.7301,1.7286,1.7242,1.7206,1.7186,1.7175,1.7153,1.7171,1.7155,1.7184,1.7196,1.7205,1.7209,1.7214,1.7226,1.7102,1.7102,1.7102,0,0,1.7579,1.7536,1.7534,1.749,1.7459,1.745,1.7381,1.7374,1.7366,1.7284,1.728,1.7246,1.7201,1.7209,1.721,1.7183,1.724,1.7211,1.7219,1.7218,1.722,1.7232,1.7243,1.7105,1.7105,1.7104,0,0,1.7663,1.763,1.764,1.7609,1.7563,1.7519,1.7522,1.7462,1.7437,1.7431,1.7369,1.7357,1.7326,1.7295,1.7276,1.7345,1.7299,1.734,1.7399,1.7404,1.7414,1.7422,1.7446,1.7455,1.7344,1.7345,1.7345,0,1.7729,1.7713,1.7651,1.7647,1.7629,1.7554,1.7563,1.7537,1.7485,1.7474,1.7445,1.7402,1.7367,1.7365,1.7382,1.7369,1.7368,1.7347,1.7418,1.7426,1.7432,1.7454,1.7463,1.735,1.7349,1.7349,1.7348,0,1.7796,1.7786,1.78,1.7752,1.7735,1.7738,1.7674,1.7664,1.7623,1.7583,1.7576,1.7531,1.7498,1.7494,1.7454,1.7486,1.7471,1.7431,1.7381,1.7451,1.7469,1.7477,1.7357,1.7356,1.7354,1.7353,0,0,1.7942,1.7858,1.7864,1.784,1.7782,1.7772,1.7771,1.7738,1.7731,1.7697,1.7693,1.7667,1.7628,1.7606,1.7562,1.7567,1.7623,1.7526,1.7524,1.7545,1.7654,1.7684,1.7695,1.7592,1.7593,1.7594,1.7657,0,1.8015,1.8009,1.7951,1.7961,1.7949,1.7877,1.7875,1.7839,1.78,1.7784,1.774,1.7722,1.7674,1.766,1.7662,1.7616,1.7644,1.7611,1.7586,1.7586,1.76,1.7705,1.7737,1.7799,1.7664,1.7665,1.7666,0,1.81,1.8071,1.808,1.8019,1.8012,1.8012,1.7977,1.7962,1.7918,1.7889,1.7864,1.7813,1.7806,1.7758,1.7745,1.7724,1.771,1.7686,1.7687,1.7682,1.7631,1.7703,1.7818,1.7827,1.7678,1.7677,1.7676,0,1.8204,1.8167,1.8167,1.8149,1.8079,1.808,1.8051,1.8005,1.7988,1.7957,1.7945,1.7913,1.7895,1.7871,1.7812,1.7783,1.7806,1.7753,1.778,1.7782,1.7789,1.7789,1.7903,1.7781,1.7781,1.778,1.778,0,1.8291,1.83,1.8213,1.8213,1.8219,1.8152,1.8159,1.8122,1.8082,1.8072,1.8007,1.7999,1.7922,1.7905,1.7859,1.7854,1.7847,1.7822,1.781,1.7828,1.7831,1.7818,1.7813,1.7783,1.7782,1.7782,1.7781,0,1.841,1.8352,1.8347,1.8281,1.8264,1.8271,1.8213,1.821,1.8166,1.8155,1.8148,1.808,1.8056,1.7995,1.7955,1.7923,1.7931,1.7909,1.7947,1.7939,1.7969,1.7967,1.8078,1.8089,1.7961,1.7962,1.7963,0,1.847,1.8474,1.8407,1.8397,1.837,1.8353,1.8336,1.8269,1.8253,1.8202,1.8204,1.8175,1.8148,1.8113,1.8059,1.8027,1.8003,1.8044,1.7998,1.8015,1.8002,1.8003,1.8002,1.8054,1.8056,1.8058,1.8059,0,1.8581,1.8552,1.853,1.8497,1.8478,1.8449,1.8416,1.8411,1.8335,1.832,1.8295,1.8274,1.8233,1.8204,1.8164,1.8131,1.8082,1.8073,1.8078,1.8097,1.8118,1.8106,1.7974,1.8071,1.807,1.8069,1.8069,1.8068,1.8671,1.8671,1.8624,1.8601,1.8569,1.8539,1.8532,1.8487,1.8465,1.8427,1.8388,1.8367,1.8319,1.826,1.8231,1.8212,1.8186,1.8193,1.8195,1.8197,1.8205,1.8121,1.8204,1.8204,1.8203,1.8203,1.8203,0,1.8779,1.8745,1.8724,1.868,1.8661,1.8616,1.8577,1.8564,1.8546,1.8507,1.8481,1.8451,1.8422,1.8365,1.8331,1.8326,1.8303,1.8319,1.8319,1.8312,1.823,1.823,1.8339,1.8339,1.8339,1.8339,1.8339,1.8339,1.8833,1.883,1.8795,1.8775,1.8739,1.8718,1.87,1.8671,1.8639,1.8608,1.8584,1.8547,1.85,1.8461,1.8432,1.8415,1.8405,1.843,1.8406,1.8331,1.8318,1.8306,1.8305,1.8428,1.8428,1.8489,1.8489,1.849]}]]